Date,TemperatureHighF,TemperatureAvgF,TemperatureLowF,DewpointHighF,DewpointAvgF,DewpointLowF,HumidityHigh,HumidityAvg,HumidityLow,PressureMaxIn,PressureMinIn,WindSpeedMaxMPH,WindSpeedAvgMPH,GustSpeedMaxMPH,PrecipitationSumIn
2013-1-1,23,20,16,17,14,11,89,78,64,30.12,30.00,17,4,18,0.00
2013-1-2,24,22,18,21,18,11,90,83,66,30.10,29.99,16,3,16,0.00
2013-1-3,29,26,23,25,22,17,93,83,71,30.06,29.92,27,5,27,0.00
2013-1-4,34,30,27,28,24,21,86,79,68,30.09,29.81,22,8,30,0.00
2013-1-5,35,31,24,31,24,20,88,76,65,30.18,29.83,15,3,18,0.02
2013-1-6,35,29,25,31,25,19,90,84,78,30.25,29.78,15,4,15,0.00
2013-1-7,40,32,24,31,25,19,83,75,60,30.25,29.84,37,8,37,0.02
2013-1-8,42,36,28,32,30,25,92,80,63,30.12,29.92,24,3,25,0.00
2013-1-9,39,37,33,34,29,24,82,73,65,30.40,29.75,26,8,26,0.00
2013-1-10,41,33,22,28,25,20,92,73,52,30.52,30.11,18,4,19,0.00
2013-1-11,44,39,34,43,37,28,97,93,74,30.11,29.62,19,4,21,0.62
2013-1-12,51,43,34,46,39,29,97,86,68,29.93,29.56,40,7,40,0.01
2013-1-13,34,30,25,29,27,23,94,89,81,29.95,29.80,14,2,15,0.00
2013-1-14,25,22,20,23,16,11,93,77,55,30.34,29.95,20,6,22,0.00
2013-1-15,28,22,10,22,16,5,84,74,64,30.37,30.03,19,6,21,0.00
2013-1-16,30,27,18,28,22,11,94,83,72,30.03,29.59,37,8,37,0.00
2013-1-17,18,14,12,12,5,0,83,67,53,30.31,29.99,24,7,24,0.00
2013-1-18,30,18,13,29,13,3,94,79,62,30.34,29.75,17,4,18,0.00
2013-1-19,37,29,24,35,27,20,96,92,84,29.82,29.38,27,4,27,0.37
2013-1-20,24,14,11,21,7,0,91,73,60,30.14,29.44,33,10,35,0.00
2013-1-21,12,8,2,7,1,-4,84,72,52,30.08,29.92,25,7,25,0.00
2013-1-22,8,3,-1,1,-3,-6,82,74,64,30.24,30.05,19,6,20,0.00
2013-1-23,13,10,8,8,5,1,87,77,68,30.28,30.05,17,5,20,0.00
2013-1-24,10,2,-14,4,-3,-19,86,80,66,30.68,30.28,12,2,12,0.00
2013-1-25,19,13,8,16,9,1,90,83,70,30.50,29.99,12,4,13,0.00
2013-1-26,26,15,2,18,11,-2,92,85,65,30.42,30.05,7,1,8,0.05
2013-1-27,30,25,17,25,20,14,92,82,70,30.42,30.07,15,4,15,0.00
2013-1-28,33,29,26,30,27,24,93,92,87,30.07,29.83,14,3,14,0.03
2013-1-29,48,36,30,48,35,28,98,95,90,29.99,29.46,18,4,18,0.42
2013-1-30,35,30,17,34,29,14,97,95,88,29.47,29.11,12,5,13,0.25
2013-1-31,17,14,11,14,11,7,91,86,81,29.85,29.20,14,6,17,0.00